• Processing (Info)

  • MPEC 2006-H06 : 2006 FD51

    The following Minor Planet Electronic Circular may be linked-to from your own Web pages, but must not otherwise be redistributed electronically.

    A form allowing access to any MPEC is at the bottom of this page.


    Read MPEC 2006-H05 Read MPEC 2006-H07


    M.P.E.C. 2006-H06                                Issued 2006 Apr. 19, 11:00 UT
    
         The Minor Planet Electronic Circulars contain information on unusual
             minor planets and routine data on comets.  They are published
       on behalf of Commission 20 of the International Astronomical Union by the
              Minor Planet Center, Smithsonian Astrophysical Observatory,
                              Cambridge, MA 02138, U.S.A.
    
                      Supported in part by the Brinson Foundation
                      Supported in part by the TABASGO Foundation
                 Prepared using the Tamkin Foundation Computer Network
    
                                  MPC@CFA.HARVARD.EDU
              URL http://cfa-www.harvard.edu/iau/mpc.html  ISSN 1523-6714
    
                                       2006 FD51
    
    Observations:
         K06F51D* C2006 03 25.33748 13 44 37.28 +25 02 48.4          19.1 V EH006703
         K06F51D  C2006 03 25.34468 13 44 36.99 +25 02 51.8          19.1 V EH006703
         K06F51D  C2006 03 25.35186 13 44 36.74 +25 02 54.9          19.1 V EH006703
         K06F51D  C2006 03 25.35904 13 44 36.49 +25 02 59.2          19.0 V EH006703
         K06F51D  C2006 04 07.28639 13 33 01.55 +26 07 03.5          18.1 R EH006699
         K06F51D  C2006 04 07.31289 13 32 59.31 +26 07 04.9                 EH006699
         K06F51D  C2006 04 07.33939 13 32 57.05 +26 07 06.9                 EH006699
         K06F51D  C2006 04 09.22672 13 30 26.49 +26 06 53.1          18.2 V EH006703
         K06F51D  C2006 04 09.23399 13 30 25.81 +26 06 53.5          18.3 V EH006703
         K06F51D  C2006 04 09.24127 13 30 25.16 +26 06 52.0          18.7 V EH006703
         K06F51D  C2006 04 09.24859 13 30 24.44 +26 06 51.6          18.3 V EH006703
         K06F51D  C2006 04 09.43817 13 30 06.94 +26 06 38.8          18.2 V EH006703
         K06F51D  C2006 04 09.44182 13 30 06.66 +26 06 38.7          18.0 V EH006703
         K06F51D  C2006 04 09.44544 13 30 06.26 +26 06 37.6          18.2 V EH006703
         K06F51D  C2006 04 09.44906 13 30 05.94 +26 06 37.5          18.2 V EH006703
         K06F51D  C2006 04 13.26130 13 24 21.90 +25 54 51.5          18.1 R EH006644
         K06F51D  C2006 04 13.28203 13 24 19.71 +25 54 45.6          18.2 R EH006644
         K06F51D  C2006 04 13.30320 13 24 17.46 +25 54 39.1          18.3 R EH006644
         K06F51D  C2006 04 18.30920 13 15 31.82 +25 13 12.1          18.0   EH006704
         K06F51D  C2006 04 18.32065 13 15 30.33 +25 13 03.7          18.6   EH006704
         K06F51D  C2006 04 18.33196 13 15 29.03 +25 12 55.7          18.1   EH006704
         K06F51D  C2006 04 18.34354 13 15 27.59 +25 12 47.2          18.3   EH006704
         K06F51D  C2006 04 18.35531 13 15 26.13 +25 12 38.4          18.4   EH006704
         K06F51D  C2006 04 18.88274 13 14 27.74 +25 06 11.4          17.7 R EH006143
         K06F51D  C2006 04 18.88742 13 14 27.33 +25 06 05.4                 EH006J95
         K06F51D  C2006 04 18.88785 13 14 27.13 +25 06 07.8          17.8 R EH006143
         K06F51D  C2006 04 18.88942 13 14 27.10 +25 06 03.9                 EH006J95
         K06F51D  C2006 04 18.89089 13 14 26.92 +25 06 03.0          17.8 R EH006J95
         K06F51D  C2006 04 18.89257 13 14 26.54 +25 06 04.3          17.9 R EH006143
         K06F51D 5C2006 04 19.02707 13 14 10.22 +25 04 20.9          17.6 R EH006012
         K06F51D 5C2006 04 19.02925 13 14 09.92 +25 04 19.3          17.8 R EH006012
         K06F51D 5C2006 04 19.03201 13 14 09.61 +25 04 17.2          17.7 R EH006012
         K06F51D 5C2006 04 19.03480 13 14 09.23 +25 04 15.0          17.6 R EH006012
         K06F51D 5C2006 04 19.03758 13 14 08.86 +25 04 12.5          17.7 R EH006012
         K06F51D 5C2006 04 19.04036 13 14 08.59 +25 04 10.8          17.6 R EH006012
         K06F51D 5C2006 04 19.04314 13 14 08.23 +25 04 08.6          17.7 R EH006012
         K06F51D  C2006 04 19.13505 13 13 59.75 +25 03 03.8          17.8 R EH006854
         K06F51D  C2006 04 19.13697 13 13 59.57 +25 03 02.4          17.9 R EH006854
         K06F51D 5C2006 04 19.13854 13 13 59.38 +25 02 59.2          18.2 R EH006673
         K06F51D  C2006 04 19.13985 13 13 59.15 +25 03 00.7          18.1 R EH006854
         K06F51D  C2006 04 19.14016 13 13 58.74 +25 02 57.2          18.0 R EH006734
         K06F51D  C2006 04 19.14310 13 13 58.34 +25 02 57.3          17.7 R EH006734
         K06F51D 5C2006 04 19.14398 13 13 58.72 +25 02 55.5                 EH006673
         K06F51D  C2006 04 19.14604 13 13 57.98 +25 02 53.6          18.1 R EH006734
         K06F51D 5C2006 04 19.14792 13 13 58.27 +25 02 52.9                 EH006673
         K06F51D 5C2006 04 19.15313 13 13 57.64 +25 02 49.0                 EH006673
         K06F51D 5C2006 04 19.17400 13 13 55.08 +25 02 33.8          18.4 R EH006673
         K06F51D 5C2006 04 19.17748 13 13 54.65 +25 02 31.2                 EH006673
         K06F51D 5C2006 04 19.18095 13 13 54.23 +25 02 28.7                 EH006673
         K06F51D 5C2006 04 19.18441 13 13 53.80 +25 02 26.1                 EH006673
         K06F51D 5C2006 04 19.18859 13 13 53.28 +25 02 23.2                 EH006673
         K06F51D 5C2006 04 19.19184 13 13 52.91 +25 02 21.0                 EH006673
         K06F51D  C2006 04 19.22623 13 13 48.46 +25 01 56.4          17.9 V EH006G96
         K06F51D  C2006 04 19.23745 13 13 47.06 +25 01 47.9          17.9 V EH006G96
         K06F51D  C2006 04 19.24858 13 13 45.66 +25 01 39.4          18.0 V EH006G96
         K06F51D  C2006 04 19.25991 13 13 44.25 +25 01 30.6          18.1 V EH006G96
    
    Observer details:
    012 Uccle.  Observer P. De Cat.  0.85-m f/2.5 Schmidt + 3Kx2K CCD.
    143 Gnosca.  Observer S. Sposetti.  0.40-m f/4 reflector + CCD.
    644 Palomar Mountain/NEAT.  Observers R. Bambery, M. Hicks, K. Lawrence,
        E. Helin, R. Thicksten.  1.2-m Schmidt + CCD.
    673 Table Mountain Observatory, Wrightwood.  Observers J. Young, D. Mayes.
        0.4-m reflector + CCD, 0.6-m f/16 Cassegrain + CCD.
    699 Lowell Observatory-LONEOS.  Observer B. A. Skiff.  0.59-m LONEOS Schmidt
        + CCD.
    703 Catalina Sky Survey.  Observers S. M. Larson, A. R. Gibbs.  Measurers
        E. C. Beshore, E. J. Christensen, G. J. Garradd, A. R. Gibbs, A. D. Grauer,
        R. E. Hill, R. A. Kowalski, S. M. Larson, R. H. McNaught.  0.68-m Schmidt
        + CCD.
    704 Lincoln Laboratory ETS, New Mexico.  Observers M. Bezpalko, L. Manguso,
        D. Torres, R. Kracke, M. Blythe, H. Love, G. Spitz.  Measurers J. Stuart,
        J. Kommers.  1.0-m f/2.15 reflector + CCD.
    734 Farpoint Observatory.  Observer D. Tibbets.  0.7-m reflector + CCD.
    854 Sabino Canyon Observatory, Tucson.  Observer J. E. McGaha.  0.36-m f/10.0
        Schmidt-Cassegrain + CCD.
    G96 Mt. Lemmon Survey.  Observer R. A. Kowalski.  Measurers E. C. Beshore,
        E. J. Christensen, G. J. Garradd, A. R. Gibbs, A. D. Grauer, R. E. Hill,
        R. A. Kowalski, S. M. Larson, R. H. McNaught.  1.5-m reflector + CCD.
    J95 Great Shefford.  Observer P. Birtwhistle.  0.40-m f/6.0 Schmidt-Cassegrain
        + CCD.
    
    Orbital elements:
    2006 FD51                                                Earth MOID = 0.0922 AU
    Epoch 2006 Mar. 6.0 TT = JDT 2453800.5                  MPC
    M 327.69377              (2000.0)            P               Q
    n   0.30926024     Peri.  209.65947     -0.15992094     +0.96533961
    a   2.1656420      Node    51.92729     -0.84625380     -0.02649481
    e   0.5059713      Incl.   15.18950     -0.50821236     -0.25964871
    P   3.19           H   18.8           G   0.15           U   5
    Residuals in seconds of arc
    060325 703  0.0   0.1+    060418 704  0.1+  0.2+    060419 673  0.0   0.0
    060325 703  0.3-  0.0     060418 704  1.3+  0.4+    060419 854  0.2+  0.5+
    060325 703  0.0   0.4-    060418 704  0.9+  0.2+    060419 734  0.5+  1.6-
    060325 703  0.3+  0.4+    060418 704  0.6+  0.0     060419 734  0.0   0.7+
    060407 699  0.3+  0.1-    060418 143  0.3-  0.2-    060419 673  0.1-  0.2+
    060407 699  0.5+  0.2-    060418 J95  0.2-  0.1+    060419 734  0.0   0.8-
    060407 699  0.6+  0.6+    060418 143  0.2-  0.1-    060419 673  0.3+  0.4+
    060409 703  0.1+  0.1+    060418 J95  0.0   0.0     060419 673  0.3+  0.2+
    060409 703  0.2-  0.7+    060418 J95  0.0   0.2+    060419 673  0.1-  0.2+
    060409 703  0.1+  0.5-    060418 143  0.4-  0.1-    060419 673  0.1-  0.1+
    060409 703  0.6-  0.7-    060419 012  0.2+  0.2-    060419 673  0.1-  0.1+
    060409 703  0.2-  0.0     060419 012  0.3-  0.1-    060419 673  0.2-  0.1+
    060409 703  0.5+  0.3+    060419 012  0.1+  0.1-    060419 673  0.3-  0.2+
    060409 703  0.5-  0.4-    060419 012  0.5-  0.1-    060419 673  0.1+  0.4+
    060409 703  0.3-  0.1-    060419 012  0.9-  0.4-    060419 G96  0.3-  0.1-
    060413 644  0.0   0.2+    060419 012  0.0   0.1+    060419 G96  0.2-  0.1-
    060413 644  0.1+  0.3+    060419 012  0.3-  0.0     060419 G96  0.3-  0.1-
    060413 644  0.2+  0.2+    060419 854  0.4+  0.2+    060419 G96  0.1-  0.2-
    060418 704  1.3+  0.5+    060419 854  1.1+  0.2+
    
    Ephemeris:
    2006 FD51                a,e,i = 2.17, 0.51, 15                  q = 1.0699
    Date    TT    R. A. (2000) Decl.     Delta      r     Elong.  Phase     V
    2006 04 15    13 21.47   +25 44.2    0.343    1.298   144.6    26.6    18.2
    2006 04 25    13 02.06   +23 20.5    0.287    1.240   140.1    31.4    17.9
    2006 05 05    12 39.66   +17 51.3    0.241    1.188   133.7    37.9    17.6
    2006 05 15    12 17.00   +08 18.4    0.205    1.143   126.1    45.6    17.4
    2006 05 25    11 55.80   -05 46.8    0.180    1.108   117.6    54.1    17.3
    2006 06 04    11 36.72   -23 26.8    0.171    1.083   109.5    62.0    17.3
    2006 06 14    11 19.03   -41 45.6    0.177    1.071   103.6    67.2    17.6
    2006 06 24    11 01.16   -57 44.5    0.198    1.072   101.0    68.6    17.8
    2006 07 04    10 41.57   -70 31.0    0.227    1.086   101.7    66.5    18.1
    2006 07 14    10 13.85   -80 42.9    0.261    1.111   104.6    62.3    18.3
    2006 07 24    06 32.58   -88 48.3    0.298    1.148   108.9    56.9    18.5
    2006 08 03    22 45.84   -82 45.4    0.339    1.193   113.9    51.0    18.7
    2006 08 13    22 21.23   -75 18.8    0.384    1.246   119.1    45.3    18.9
    2006 08 23    22 10.80   -68 00.6    0.437    1.305   123.6    40.2    19.2
    2006 09 02    22 06.41   -60 52.7    0.499    1.367   126.7    36.3    19.4
    2006 09 12    22 06.25   -54 04.7    0.573    1.432   128.1    33.6    19.8
    2006 09 22    22 09.21   -47 45.1    0.660    1.500   127.4    32.1    20.1
    2006 10 02    22 14.70   -41 58.1    0.762    1.568   125.0    31.5    20.5
    2006 10 12    22 22.17   -36 45.0    0.878    1.636   121.4    31.4    20.9
    2006 10 22    22 31.16   -32 03.4    1.006    1.705   116.8    31.4    21.3
    2006 11 01    22 41.37   -27 49.4    1.148    1.773   111.6    31.4    21.7
    2006 11 11    22 52.52   -23 59.0    1.299    1.840   106.2    31.1    22.0
    
    Timothy B. Spahr             (C) Copyright 2006 MPC           M.P.E.C. 2006-H06
    

    Read MPEC 2006-H05 Read MPEC 2006-H07


    MPEC number:

    Enter an MPEC number in one of the following forms:

    • 1997-B01 (the full form)
    • J97B01 (the packed version of the full form)
    • B01 (the abbreviated form)